Location: Poughquag
(41.6090°N, 73.6820°W)
Time: 09:45:02
(UTC-04:00)

ACS3 Solar Sail - Pass Details

Date: 23 June 2024
Orbit: 992 x 1023 km, 97.4° (Epoch: 11 July)

Event Time Altitude Azimuth Distance (km) Brightness Sun altitude
Exits shadow 23:06:28 19° 202° (SSW) 2,161 6.2 -20.1°
Maximum altitude 23:10:32 43° 264° (W) 1,377 5.7 -20.5°
Drops below altitude 10° 23:16:25 10° 335° (NNW) 2,765 8.4 -20.9°
Sets 23:19:03 0° 342° (NNW) 3,717 9.4 -21.1°
